Weather Roundup
Issued by NWS Springfield, MO

Home | Current Version | Previous Version | Text Only | Print | Product List | Glossary On
Versions: 1 2 3 4 5 6 7 8 9 10 11 12 13 14 15 16 17 18 19 20 21 22 23 24 25 26 27 28 29 30 31 32 33 34 35 36 37 38 39 40 41 42 43 44 45 46 47 48 49 50
634
NZUS99 KSGF 210307
HRRSGF

HOURLY WEATHER
NATIONAL WEATHER SERVICE SPRINGFIELD MO
900 PM CST SAT JAN 20 2018

......SGF CWA......

CITY           SKY/WX    TMP DP  RH WIND       PRES   REMARKS
SPRINGFIELD    CLEAR     50  46  86 S12       29.89S
JOPLIN         CLEAR     54  49  83 S17G26    29.87S
WEST PLAINS    CLOUDY    52  46  80 S12G18    29.99S
ROLLA          CLEAR     50  46  86 S12       29.93S
OSAGE BEACH    CLEAR     49  43  80 S7        29.91S
BRANSON        CLEAR     50  46  87 SE7       29.94S

......SURROUNDING SGF CWA......

CITY           SKY/WX    TMP DP  RH WIND       PRES   REMARKS
CHANUTE        CLEAR     53  47  79 S13       29.83S
PARSONS        CLEAR     54  49  83 S8        29.83S
COFFEYVILLE    CLEAR     54  49  83 SE10      29.83S
EMPORIA        CLEAR     39  38  96 SE5       29.79S
GROVE OK       MOCLDY    55  50  82 S12       29.89F
ROGERS AR      CLEAR     50  47  89 S8        29.92S
SILOAM SPRINGS CLOUDY    54  49  83 S12       29.91F
HARRISON AR    CLEAR     55  49  80 S17G28    29.93F
NEAR YELLVILLE CLOUDY    55  50  83 SE6       29.97F

......KANSAS AND MISSOURI......

CITY           SKY/WX    TMP DP  RH WIND       PRES   REMARKS
KANSAS CTY INT CLEAR     43  42  97 E8        29.85S
DOWNTOWN KC    CLEAR     46  41  82 E3        29.84F
COLUMBIA       CLEAR     48  42  80 SE8       29.90S
SEDALIA        CLEAR     42  41  96 SE7       29.87F
ST JOSEPH      FOG       36  36 100 CALM      29.85F VSB 1
ST LOUIS       CLOUDY    46  40  79 S9        29.97S
SPIRIT OF STL  CLOUDY    43  39  86 SE5       29.95S
KIRKSVILLE     CLOUDY    42  41  96 E6        29.91F
WICHITA        CLOUDY    48  41  76 SE5       29.75S
TOPEKA         FOG       38  38 100 CALM      29.82F VSB 1/2
OLATHE         CLEAR     41  41 100 E3        29.84S

......TENNESSEE......

CITY           SKY/WX    TMP DP  RH WIND       PRES   REMARKS
MEMPHIS        MOCLDY    54  50  86 S7        30.11F
NASHVILLE      MOCLDY    55  37  50 S9        30.17S

......ARKANSAS.......

CITY           SKY/WX    TMP DP  RH WIND       PRES   REMARKS
FAYETTEVILLE   PTCLDY    54  51  90 VRB7      29.92S
FT SMITH       PTCLDY    48  47  96 N5        29.94S
LITTLE ROCK    MOCLDY    58  56  93 S10       30.05S

......OKLAHOMA.......

CITY           SKY/WX    TMP DP  RH WIND       PRES   REMARKS
TULSA          CLEAR     57  51  80 SE15      29.83S
PONCA CITY     CLEAR     59  42  53 S21       29.76F
MCALESTER      PTCLDY    60  54  80 S13G24    29.89S
OKLAHOMA CITY  CLEAR     56  47  71 S16       29.79S

......IOWA............

CITY           SKY/WX    TMP DP  RH WIND       PRES   REMARKS
DES MOINES     CLOUDY    40  36  86 E5        29.89F
QUAD CITIES    CLOUDY    42  37  82 CALM      29.95S

......ILLINOIS........

CITY           SKY/WX    TMP DP  RH WIND       PRES   REMARKS
QUINCY         CLOUDY    41  38  89 SE8       29.95R
CHICAGO        CLOUDY    40  35  83 S7        29.97F




USA.gov is the U.S. government's official web portal to all federal, state and local government web resources and services.